GW0658 Weather Reports


Display with metric or nautical units.
time (UTC)temp
F
wind
direction
speed
MPH
gust
MPH
rain 1hr
in
rain 24hr
in
rain mn
in
humidity
%
barometer
mb
20260901202022 65 176 3.0 9.0 0.00 0.00 0.00 47 1018.0
20260901201540 65 191 3.0 9.0 0.00 0.00 0.00 47 1017.9
20260901201018 65 207 3.0 11.0 0.00 0.00 0.00 44 1017.9
20260901200520 66 183 4.0 11.0 0.00 0.00 0.00 42 1018.0
20260901200107 66 314 5.0 10.0 0.00 0.00 0.00 42 1018.0
20260901195520 66 225 4.0 15.0 0.00 0.00 0.00 42 1017.9
20260901195020 66 186 5.0 15.0 0.00 0.00 0.00 43 1017.9
20260901194555 65 220 4.0 11.0 0.00 0.00 0.00 43 1017.9
20260901194026 65 194 4.0 13.0 0.00 0.00 0.00 45 1017.9
20260901193525 65 125 5.0 14.0 0.00 0.00 0.00 46 1017.8
20260901193049 65 317 6.0 14.0 0.00 0.00 0.00 47 1018.0
20260901192523 65 227 3.0 11.0 0.00 0.00 0.00 48 1018.0
20260901192022 65 197 4.0 11.0 0.00 0.00 0.00 49 1017.9
20260901191620 64 202 5.0 11.0 0.00 0.00 0.00 50 1017.9
20260901191022 64 211 3.0 10.0 0.00 0.00 0.00 52 1017.9
20260901190524 64 227 3.0 7.0 0.00 0.00 0.00 54 1017.9
20260901190039 64 209 2.0 7.0 0.00 0.00 0.00 54 1017.9
20260901185522 63 195 2.0 7.0 0.00 0.00 0.00 56 1018.1
20260901185022 63 94 2.0 8.0 0.00 0.00 0.00 55 1018.1
20260901184540 63 186 3.0 10.0 0.00 0.00 0.00 56 1018.1
20260901184020 63 164 4.0 10.0 0.00 0.00 0.00 56 1018.1
20260901183520 62 196 1.0 9.0 0.00 0.00 0.00 59 1018.2
20260901183050 62 218 2.0 9.0 0.00 0.00 0.00 59 1018.1
20260901182520 62 101 1.0 10.0 0.00 0.00 0.00 60 1018.1
20260901182020 61 199 1.0 10.0 0.00 0.00 0.00 61 1018.1
20260901181547 61 193 3.0 7.0 0.00 0.00 0.00 59 1018.1
20260901181019 62 121 1.0 5.0 0.00 0.00 0.00 60 1018.3
20260901180525 61 249 1.0 7.0 0.00 0.00 0.00 62 1018.2
20260901180046 61 229 2.0 7.0 0.00 0.00 0.00 62 1018.1
20260901175522 61 169 2.0 6.0 0.00 0.00 0.00 61 1018.1
20260901175022 60 292 1.0 6.0 0.00 0.00 0.00 62 1018.1
20260901174544 60 261 1.0 6.0 0.00 0.00 0.00 62 1018.1
20260901174023 59 183 2.0 8.0 0.00 0.00 0.00 64 1018.1
20260901173520 59 217 2.0 8.0 0.00 0.00 0.00 64 1018.0
20260901173040 59 169 3.0 8.0 0.00 0.00 0.00 63 1017.8
20260901172519 59 270 1.0 6.0 0.00 0.00 0.00 63 1017.7
20260901172022 58 219 1.0 6.0 0.00 0.00 0.00 64 1017.7
20260901171541 58 197 2.0 5.0 0.00 0.00 0.00 64 1017.7
20260901171022 58 215 2.0 4.0 0.00 0.00 0.00 64 1017.6
20260901170523 58 237 1.0 4.0 0.00 0.00 0.00 64 1017.5
20260901170052 58 178 1.0 7.0 0.00 0.00 0.00 64 1017.6
20260901165521 58 203 3.0 7.0 0.00 0.00 0.00 63 1017.5
20260901165021 58 210 2.0 5.0 0.00 0.00 0.00 63 1017.5
20260901164542 57 224 1.0 5.0 0.00 0.00 0.00 64 1017.5
20260901164021 56 11 2.0 6.0 0.00 0.00 0.00 64 1017.5
20260901163521 56 0 0.0 6.0 0.00 0.00 0.00 65 1017.4
20260901163044 56 136 1.0 5.0 0.00 0.00 0.00 65 1017.3
20260901162520 55 17 1.0 6.0 0.00 0.00 0.00 66 1017.3
20260901162027 55 236 1.0 6.0 0.00 0.00 0.00 67 1017.2
20260901161541 54 0 1.0 8.0 0.00 0.00 0.00 66 1017.2
20260901161023 55 0 1.0 8.0 0.00 0.00 0.00 66 1017.1
20260901160525 55 0 0.0 6.0 0.00 0.00 0.00 66 1017.1
20260901155523 55 352 0.0 6.0 0.00 0.00 0.00 65 1017.0
20260901155024 55 0 1.0 6.0 0.00 0.00 0.00 64 1017.0
20260901154541 56 0 0.0 3.0 0.00 0.00 0.00 63 1017.0
20260901154021 56 184 0.0 4.0 0.00 0.00 0.00 62 1017.0
20260901153521 56 205 1.0 4.0 0.00 0.00 0.00 61 1016.8
20260901153050 56 260 0.0 2.0 0.00 0.00 0.00 61 1016.8
20260901152519 56 0 0.0 1.0 0.00 0.00 0.00 62 1016.6
20260901152020 56 0 0.0 3.0 0.00 0.00 0.00 63 1016.7
20260901151544 56 0 0.0 3.0 0.00 0.00 0.00 62 1016.5
20260901151020 56 0 0.0 3.0 0.00 0.00 0.00 65 1016.5
20260901150524 55 0 0.0 3.0 0.00 0.00 0.00 66 1016.3
20260901150052 54 0 0.0 3.0 0.00 0.00 0.00 67 1016.3
20260901145524 54 0 0.0 3.0 0.00 0.00 0.00 69 1016.2
20260901145024 53 52 0.0 3.0 0.00 0.00 0.00 68 1016.1
20260901144544 53 0 0.0 3.0 0.00 0.00 0.00 68 1016.2
20260901144021 53 43 1.0 3.0 0.00 0.00 0.00 68 1016.1
20260901143520 53 53 1.0 3.0 0.00 0.00 0.00 68 1016.1
20260901143052 52 0 0.0 0.0 0.00 0.00 0.00 68 1016.0
20260901142522 52 0 0.0 0.0 0.00 0.00 0.00 68 1016.0
20260901142019 52 0 0.0 0.0 0.00 0.00 0.00 69 1016.0
20260901141541 51 0 0.0 0.0 0.00 0.00 0.00 68 1015.9
20260901141022 51 0 0.0 4.0 0.00 0.00 0.00 68 1015.8
20260901140522 50 0 0.0 4.0 0.00 0.00 0.00 69 1015.7
20260901140125 49 0 1.0 4.0 0.00 0.00 0.00 69 1015.7
20260901135524 49 46 1.0 3.0 0.00 0.00 0.00 71 1015.8
20260901135026 48 47 1.0 3.0 0.00 0.00 0.00 73 1015.7
20260901134541 47 49 2.0 3.0 0.00 0.00 0.00 75 1015.7
20260901134024 46 44 2.0 3.0 0.00 0.00 0.00 77 1015.7
20260901133521 46 56 1.0 3.0 0.00 0.00 0.00 78 1015.8
20260901133041 46 59 1.0 4.0 0.00 0.00 0.00 77 1015.8
20260901132521 46 64 2.0 4.0 0.00 0.00 0.00 76 1015.8
20260901132024 47 61 2.0 4.0 0.00 0.00 0.00 73 1015.8
20260901131541 48 55 1.0 3.0 0.00 0.00 0.00 70 1015.8
20260901131026 50 63 1.0 3.0 0.00 0.00 0.00 65 1015.8
20260901130525 51 59 1.0 3.0 0.00 0.00 0.00 61 1015.7
20260901130045 52 84 1.0 3.0 0.00 0.00 0.00 58 1015.7
20260901125519 53 0 0.0 2.0 0.00 0.00 0.00 56 1015.8
20260901125023 54 0 0.0 3.0 0.00 0.00 0.00 56 1015.8
20260901124541 55 0 1.0 3.0 0.00 0.00 0.00 54 1015.8
20260901124021 56 0 0.0 3.0 0.00 0.00 0.00 48 1015.7
20260901123523 56 88 1.0 3.0 0.00 0.00 0.00 47 1015.6
20260901123040 56 0 0.0 3.0 0.00 0.00 0.00 47 1015.5
20260901122524 56 0 0.0 3.0 0.00 0.00 0.00 47 1015.5
20260901122022 56 62 1.0 3.0 0.00 0.00 0.00 47 1015.5
20260901121545 57 59 1.0 3.0 0.00 0.00 0.00 47 1015.5
20260901121024 56 57 1.0 3.0 0.00 0.00 0.00 46 1015.5
20260901120521 56 65 1.0 3.0 0.00 0.00 0.00 47 1015.5
20260901120041 56 59 1.0 3.0 0.00 0.00 0.00 46 1015.7
20260901115518 56 65 1.0 3.0 0.00 0.00 0.00 47 1015.7
20260901115020 56 59 1.0 3.0 0.00 0.00 0.00 46 1015.7
20260901114540 56 60 1.0 2.0 0.00 0.00 0.00 46 1015.7
20260901114020 56 62 1.0 3.0 0.00 0.00 0.00 46 1015.7
20260901113532 56 54 1.0 3.0 0.00 0.00 0.00 46 1015.8
20260901113046 56 53 1.0 3.0 0.00 0.00 0.00 46 1015.7
20260901112523 56 0 1.0 3.0 0.00 0.00 0.00 46 1015.7
20260901112024 57 63 1.0 3.0 0.00 0.00 0.00 46 1015.7
20260901111543 57 64 1.0 3.0 0.00 0.00 0.00 46 1015.8
20260901111018 57 67 1.0 3.0 0.00 0.00 0.00 46 1015.8
20260901110524 57 68 1.0 3.0 0.00 0.00 0.00 46 1015.8
20260901110052 57 58 1.0 3.0 0.00 0.00 0.00 46 1015.8
20260901105529 57 62 1.0 3.0 0.00 0.00 0.00 46 1015.8
20260901105024 57 0 1.0 3.0 0.00 0.00 0.00 46 1015.9
20260901104547 57 60 1.0 3.0 0.00 0.00 0.00 46 1015.9
20260901104024 57 54 1.0 3.0 0.00 0.00 0.00 46 1015.9
20260901103524 57 54 1.0 3.0 0.00 0.00 0.00 46 1015.9
20260901103042 57 34 1.0 3.0 0.00 0.00 0.00 45 1015.9
20260901102523 56 63 1.0 3.0 0.00 0.00 0.00 46 1016.0
20260901102020 56 63 1.0 3.0 0.00 0.00 0.00 46 1015.8
20260901101558 56 67 1.0 3.0 0.00 0.00 0.00 46 1016.0
20260901101025 56 56 2.0 3.0 0.00 0.00 0.00 47 1015.9
20260901100524 56 53 2.0 3.0 0.00 0.00 0.00 47 1016.0
20260901100053 56 64 1.0 3.0 0.00 0.00 0.00 47 1016.1
20260901095523 56 61 1.0 3.0 0.00 0.00 0.00 47 1016.0
20260901095025 56 66 1.0 3.0 0.00 0.00 0.00 48 1016.0
20260901094546 56 55 1.0 3.0 0.00 0.00 0.00 48 1016.0
20260901094022 56 60 1.0 3.0 0.00 0.00 0.00 49 1016.0
20260901093522 56 67 1.0 3.0 0.00 0.00 0.00 49 1016.1
20260901093042 56 55 1.0 3.0 0.00 0.00 0.00 48 1016.2
20260901092524 56 57 0.0 3.0 0.00 0.00 0.00 48 1016.1
20260901092020 56 58 1.0 3.0 0.00 0.00 0.00 48 1016.1
20260901091553 56 61 1.0 3.0 0.00 0.00 0.00 48 1016.2
20260901091024 57 52 1.0 3.0 0.00 0.00 0.00 48 1016.2
20260901090523 57 65 1.0 3.0 0.00 0.00 0.00 48 1016.3
20260901090045 57 52 1.0 3.0 0.00 0.00 0.00 48 1016.2
20260901085524 57 0 1.0 2.0 0.00 0.00 0.00 48 1016.2
20260901085025 57 68 0.0 0.0 0.00 0.00 0.00 48 1016.1
20260901084544 57 0 0.0 0.0 0.00 0.00 0.00 48 1016.2
20260901084024 57 0 0.0 0.0 0.00 0.00 0.00 48 1016.1
20260901083522 57 0 0.0 0.0 0.00 0.00 0.00 48 1016.2
20260901083044 57 0 0.0 2.0 0.00 0.00 0.00 48 1016.2
20260901082520 57 0 0.0 2.0 0.00 0.00 0.00 48 1016.2
20260901082023 57 65 0.0 2.0 0.00 0.00 0.00 48 1016.2
20260901081540 57 65 1.0 2.0 0.00 0.00 0.00 48 1016.2
20260901081024 57 65 1.0 2.0 0.00 0.00 0.00 49 1016.2
20260901080525 57 65 1.0 2.0 0.00 0.00 0.00 48 1016.2
20260901080140 57 65 1.0 2.0 0.00 0.00 0.00 48 1016.1
20260901075525 57 65 1.0 3.0 0.00 0.00 0.00 49 1016.1
20260901075026 58 0 0.0 3.0 0.00 0.00 0.00 49 1016.1
20260901074545 58 67 0.0 3.0 0.00 0.00 0.00 49 1016.1
20260901074024 58 61 0.0 2.0 0.00 0.00 0.00 50 1016.1
20260901073521 58 0 0.0 2.0 0.00 0.00 0.00 51 1016.2
20260901073042 58 61 0.0 2.0 0.00 0.00 0.00 52 1016.2
20260901072521 58 0 0.0 2.0 0.00 0.00 0.00 53 1016.1
20260901072021 58 65 0.0 3.0 0.00 0.00 0.00 54 1016.0
20260901071542 58 0 0.0 3.0 0.00 0.00 0.00 55 1016.1
20260901071028 58 49 1.0 3.0 0.00 0.00 0.00 57 1016.0
20260901070526 58 62 1.0 2.0 0.00 0.00 0.00 58 1016.0
20260901070053 58 62 1.0 2.0 0.00 0.00 0.00 59 1016.0
20260901065526 58 61 1.0 2.0 0.00 0.00 0.00 59 1016.0
20260901065023 58 60 1.0 3.0 0.00 0.00 0.00 60 1016.0
20260901064543 58 59 1.0 3.0 0.00 0.00 0.00 60 1016.0
20260901064023 58 0 1.0 2.0 0.00 0.00 0.00 60 1016.1
20260901063523 58 0 0.0 3.0 0.00 0.00 0.00 60 1016.0
20260901063054 58 0 0.0 3.0 0.00 0.00 0.00 60 1015.9
20260901062520 58 56 0.0 0.0 0.00 0.00 0.00 60 1015.8
20260901062025 58 0 0.0 0.0 0.00 0.00 0.00 60 1016.0
20260901061558 59 0 0.0 0.0 0.00 0.00 0.00 60 1016.0
20260901061024 59 0 0.0 0.0 0.00 0.00 0.00 60 1016.0
20260901060527 59 0 0.0 0.0 0.00 0.00 0.00 60 1016.0
20260901060046 59 0 0.0 0.0 0.00 0.00 0.00 59 1016.1
20260901055521 59 0 0.0 0.0 0.00 0.00 0.00 59 1016.0
20260901055021 59 0 0.0 0.0 0.00 0.00 0.00 59 1016.0
20260901054544 59 0 0.0 0.0 0.00 0.00 0.00 59 1016.1
20260901054025 59 0 0.0 0.0 0.00 0.00 0.00 59 1016.2
20260901053525 59 0 0.0 0.0 0.00 0.00 0.00 59 1016.1
20260901053054 59 0 0.0 0.0 0.00 0.00 0.00 59 1016.2
20260901052527 59 0 0.0 0.0 0.00 0.00 0.00 59 1016.1
20260901052027 59 0 0.0 0.0 0.00 0.00 0.00 59 1016.2
20260901051544 59 0 0.0 0.0 0.00 0.00 0.00 59 1016.1
20260901051027 59 0 0.0 0.0 0.00 0.00 0.00 60 1016.1
20260901050519 59 0 0.0 0.0 0.00 0.00 0.00 60 1016.1
20260901050041 59 0 0.0 0.0 0.00 0.00 0.00 61 1016.1
20260901045522 59 0 0.0 0.0 0.00 0.00 0.00 61 1016.3
20260901045024 59 0 0.0 0.0 0.00 0.00 0.00 61 1016.2
20260901044558 59 0 0.0 0.0 0.00 0.00 0.00 61 1016.2
20260901044024 59 0 0.0 0.0 0.00 0.00 0.00 61 1016.2
20260901043524 59 0 0.0 0.0 0.00 0.00 0.00 61 1016.1
20260901043047 59 0 0.0 0.0 0.00 0.00 0.00 61 1016.1
20260901042521 59 0 0.0 0.0 0.00 0.00 0.00 60 1016.1
20260901042021 59 0 0.0 0.0 0.00 0.00 0.00 60 1016.1
20260901041541 60 0 0.0 0.0 0.00 0.00 0.00 60 1016.1
20260901041025 60 0 0.0 2.0 0.00 0.00 0.00 60 1016.0
20260901040525 60 0 0.0 2.0 0.00 0.00 0.00 60 1016.0
20260901040055 60 142 1.0 2.0 0.00 0.00 0.00 59 1015.9
20260901035525 60 142 0.0 0.0 0.00 0.00 0.00 59 1015.9
20260901035024 60 0 0.0 2.0 0.00 0.00 0.00 58 1016.0
20260901034542 60 0 0.0 2.0 0.00 0.00 0.00 59 1016.0
20260901034022 60 142 1.0 2.0 0.00 0.00 0.00 58 1015.9
20260901033520 61 142 1.0 2.0 0.00 0.00 0.00 58 1015.9
20260901033042 61 142 1.0 2.0 0.00 0.00 0.00 57 1015.9
20260901032525 61 142 0.0 2.0 0.00 0.00 0.00 57 1015.8
20260901032025 61 142 1.0 2.0 0.00 0.00 0.00 57 1015.7
20260901031545 61 142 1.0 2.0 0.00 0.00 0.00 57 1015.7
20260901031023 61 142 1.0 2.0 0.00 0.00 0.00 57 1015.7
20260901030522 62 142 1.0 2.0 0.00 0.00 0.00 56 1015.7
20260901030045 62 142 1.0 2.0 0.00 0.00 0.00 56 1015.7
20260901025522 62 150 1.0 2.0 0.00 0.00 0.00 55 1015.6
20260901025023 62 202 1.0 2.0 0.00 0.00 0.00 55 1015.5
20260901024548 63 202 1.0 2.0 0.00 0.00 0.00 54 1015.6
20260901024025 63 202 1.0 2.0 0.00 0.00 0.00 53 1015.6
20260901023524 64 225 1.0 2.0 0.00 0.00 0.00 53 1015.7
20260901023050 65 0 0.0 0.0 0.00 0.00 0.00 52 1015.7
20260901022526 65 0 0.0 0.0 0.00 0.00 0.00 53 1015.7
20260901022023 66 0 0.0 0.0 0.00 0.00 0.00 52 1015.6
20260901021604 66 0 0.0 0.0 0.00 0.00 0.00 52 1015.6
20260901021020 66 0 0.0 0.0 0.00 0.00 0.00 52 1015.7
20260901020520 66 0 0.0 0.0 0.00 0.00 0.00 50 1015.7
20260901020043 66 0 0.0 0.0 0.00 0.00 0.00 51 1015.7
20260901015526 67 0 0.0 0.0 0.00 0.00 0.00 51 1015.8
20260901015026 67 0 0.0 2.0 0.00 0.00 0.00 49 1015.8
20260901014551 67 0 0.0 4.0 0.00 0.00 0.00 48 1015.8
20260901014024 67 225 0.0 5.0 0.00 0.00 0.00 47 1015.8
20260901013524 68 232 3.0 5.0 0.00 0.00 0.00 47 1015.9
20260901013045 69 210 2.0 4.0 0.00 0.00 0.00 45 1015.9
20260901012523 70 200 2.0 4.0 0.00 0.00 0.00 43 1015.7
20260901012026 70 220 0.0 9.0 0.00 0.00 0.00 42 1015.8
20260901011541 70 207 2.0 9.0 0.00 0.00 0.00 42 1015.8
20260901011022 70 200 3.0 7.0 0.00 0.00 0.00 42 1015.8
20260901010526 70 189 3.0 7.0 0.00 0.00 0.00 41 1015.9
20260901010042 70 212 3.0 7.0 0.00 0.00 0.00 42 1015.8
20260901005521 70 190 3.0 7.0 0.00 0.00 0.00 42 1015.8
20260901005026 71 220 3.0 7.0 0.00 0.00 0.00 42 1015.8
20260901004545 71 248 2.0 7.0 0.00 0.00 0.00 42 1015.8
20260901004025 71 0 2.0 7.0 0.00 0.00 0.00 41 1015.7
20260901003525 71 198 3.0 7.0 0.00 0.00 0.00 42 1015.8
20260901003047 71 188 3.0 7.0 0.00 0.00 0.00 42 1015.9
20260901002523 71 210 2.0 6.0 0.00 0.00 0.00 42 1015.9
20260901002027 71 209 2.0 6.0 0.00 0.00 0.00 44 1015.9
20260901001607 71 188 3.0 6.0 0.00 0.00 0.00 44 1015.9
20260901001022 71 232 3.0 7.0 0.00 0.00 0.00 44 1015.9
20260901000520 71 211 3.0 8.0 0.00 0.00 0.00 43 1015.9
20260901000040 71 184 3.0 8.0 0.00 0.00 0.00 42 1016.0
20260831235525 72 235 4.0 10.0 0.00 0.00 0.00 41 1016.1
20260831235025 73 246 4.0 10.0 0.00 0.00 0.00 40 1016.0
20260831234540 74 217 3.0 6.0 0.00 0.00 0.00 38 1016.0
20260831234025 74 203 3.0 6.0 0.00 0.00 0.00 38 1016.0
20260831233522 74 246 3.0 7.0 0.00 0.00 0.00 34 1016.0
20260831233041 74 287 3.0 10.0 0.00 0.00 0.00 34 1016.0
20260831232521 74 225 3.0 10.0 0.00 0.00 0.00 34 1016.1
20260831232023 75 189 5.0 10.0 0.00 0.00 0.00 34 1016.0
20260831231556 75 186 4.0 13.0 0.00 0.00 0.00 33 1016.1
20260831231025 74 193 4.0 13.0 0.00 0.00 0.00 33 1016.2
20260831230525 75 352 3.0 12.0 0.00 0.00 0.00 34 1016.1
20260831230052 75 192 5.0 12.0 0.00 0.00 0.00 33 1016.1
20260831225523 75 207 5.0 9.0 0.00 0.00 0.00 34 1016.0
20260831225026 75 352 3.0 9.0 0.00 0.00 0.00 36 1016.2
20260831224610 75 209 3.0 8.0 0.00 0.00 0.00 37 1016.2
20260831224020 75 200 3.0 9.0 0.00 0.00 0.00 37 1016.3
20260831223528 75 218 2.0 9.0 0.00 0.00 0.00 37 1016.3
20260831223041 75 213 3.0 7.0 0.00 0.00 0.00 38 1016.2
20260831222524 75 198 3.0 8.0 0.00 0.00 0.00 38 1016.3
20260831222026 76 196 2.0 8.0 0.00 0.00 0.00 39 1016.3
20260831221549 76 176 3.0 8.0 0.00 0.00 0.00 38 1016.4
20260831221024 76 352 3.0 8.0 0.00 0.00 0.00 37 1016.4
20260831220524 76 352 3.0 9.0 0.00 0.00 0.00 37 1016.5
20260831220051 76 188 4.0 9.0 0.00 0.00 0.00 39 1016.5
20260831215523 75 232 3.0 11.0 0.00 0.00 0.00 39 1016.6
20260831215022 76 178 5.0 11.0 0.00 0.00 0.00 38 1016.6
20260831214546 76 221 4.0 9.0 0.00 0.00 0.00 40 1016.6
20260831214030 75 187 4.0 9.0 0.00 0.00 0.00 39 1016.6
20260831213525 75 247 3.0 9.0 0.00 0.00 0.00 40 1016.7
20260831213040 76 189 4.0 10.0 0.00 0.00 0.00 39 1016.6
20260831212526 76 200 4.0 10.0 0.00 0.00 0.00 38 1016.7
20260831212027 76 214 5.0 10.0 0.00 0.00 0.00 39 1016.8
20260831211602 76 192 2.0 8.0 0.00 0.00 0.00 38 1016.7
20260831211022 76 169 3.0 12.0 0.00 0.00 0.00 36 1016.6
20260831210521 76 140 4.0 12.0 0.00 0.00 0.00 37 1016.8
20260831210042 76 202 3.0 12.0 0.00 0.00 0.00 37 1016.7
20260831205525 76 199 5.0 12.0 0.00 0.00 0.00 37 1016.6
20260831205020 77 233 4.0 10.0 0.00 0.00 0.00 36 1016.6
20260831204542 77 229 3.0 10.0 0.00 0.00 0.00 36 1016.5
20260831204026 77 188 4.0 10.0 0.00 0.00 0.00 35 1016.6
20260831203524 77 225 4.0 13.0 0.00 0.00 0.00 34 1016.6
20260831203048 76 236 7.0 13.0 0.00 0.00 0.00 36 1016.6
20260831202523 77 178 4.0 11.0 0.00 0.00 0.00 35 1016.7